Regional Weather Roundup
Issued by NWS

Home | Current Version | Previous Version | Graphics & Text | Print | Product List | Glossary On
Versions: 1 2 3 4 5 6 7 8 9 10 11 12 13 14 15 16 17 18 19 20 21 22 23 24 25 26 27 28
000
ASUS45 KTFX 210610
RWRMT
MONTANA REGIONAL WEATHER ROUNDUP
NATIONAL WEATHER SERVICE GREAT FALLS MT
1100 PM MST TUE FEB 20 2018

NOTE: "FAIR" INDICATES FEW OR NO CLOUDS BELOW 12000 FEET WITH NO
SIGNIFICANT WEATHER AND/OR OBSTRUCTIONS TO VISIBILITY.

MTZ001>007-043-210700-
WEST OF THE DIVIDE

CITY           SKY/WX    TMP DP  RH WIND       PRES   REMARKS
KALISPELL      FAIR       2   0  91 CALM      30.19R
MISSOULA       CLOUDY    11   1  64 E3        30.16R
BUTTE          CLOUDY   -12 -17  78 CALM      29.99S
MULLAN PASS    FAIR      -1  -4  87 CALM      29.91R
ANACONDA         N/A     -4  -9  77 S3        30.04S
DEER LODGE       N/A     -6 -11  77 CALM      30.08S
HAMILTON         N/A      7   0  72 MISG      30.13S
RONAN            N/A      1  -2  85 CALM      30.19S
$$

MTZ008-052>055-210700-
SOUTHWEST MONTANA

CITY           SKY/WX    TMP DP  RH WIND       PRES   REMARKS
BOZEMAN        FAIR      -9 -14  78 CALM      30.09R
DILLON         FAIR      -8  -9  95 S3        30.00S
ENNIS          MOCLDY     5  -4  66 S15       30.05S WCI -13
W YELLOWSTONE  LGT SNOW   1  -4  78 S5        29.97F
THREE FORKS      N/A     -9 -17  67 CALM      30.07S
$$

MTZ009-010-012-014-046-048-049-054-210700-
EAST SLOPES AND CENTRAL MONTANA

CITY           SKY/WX    TMP DP  RH WIND       PRES   REMARKS
CUT BANK       CLOUDY     1  -5  75 S6        30.08S WCI -10
GREAT FALLS    FAIR      -5 -11  75 CALM      30.11S
MALMSTROM AFB  PTCLDY    -5 -15  62 SW6       30.15S WCI -17
HELENA         MOCLDY    -4  -9  79 N5        30.14R
AUGUSTA        MOCLDY    -3  -8  77 CALM      30.04S
CHOTEAU          N/A     -2  -9  71 SW5       30.11S
RAYNESFORD     MOCLDY    -6 -13  71 CALM      30.09S
WHITE SULPHUR    N/A    -13 -18  77 CALM      30.01S
$$

MTZ011-013-016-021-045-047-050-051-210700-
NORTH CENTRAL MONTANA

CITY           SKY/WX    TMP DP  RH WIND       PRES   REMARKS
HAVRE          FAIR     -11 -16  78 NW6       30.21R WCI -25
LEWISTOWN      FAIR      -9 -15  75 SE7       30.09R WCI -24
N BAR RANCH    FAIR      -4 -17  54 W8        30.10R WCI -19
CHINOOK          N/A    -11 -17  77 N3        30.23S
GEYSER         FAIR      -6 -15  68 W6        30.09R WCI -19
STANFORD       FAIR      -1  -8  69 CALM      30.06R
$$

MTZ017>020-022>027-061-062-210700-
NORTHEAST MONTANA

CITY           SKY/WX    TMP DP  RH WIND       PRES   REMARKS
GLASGOW        FAIR      -9 -16  71 W6        30.21R WCI -22
GLENDIVE       FAIR     -13 -21  67 S8        30.23S WCI -30
JORDAN           N/A     -3 -13  62 W14       30.20R WCI -22
MALTA          CLOUDY   -20 -24  83 CALM      30.23R
SIDNEY         FAIR     -12 -17  78 S5        30.26R
WOLF POINT     FAIR     -12 -18  74 SW3       30.25R
PLENTYWOOD       N/A     -6 -13  71 CALM      30.16S
$$

MTZ028>42-056>058-210700-
SOUTHCENTRAL AND SOUTHEAST MONTANA

CITY           SKY/WX    TMP DP  RH WIND       PRES   REMARKS
BAKER          FAIR      -8 -13  78 W5        30.21R
BILLINGS       FAIR       1  -8  66 SW21      30.15F WCI -21
LIVINGSTON     FAIR      -8 -13  78 W5        30.06R
MILES CITY     FAIR     -12 -14  90 S7        30.25R WCI -27
BIG TIMBER     CLOUDY    -2  -8  78 SW6       30.10S WCI -14
FORSYTH          N/A     -8 -13  77 W5        30.24S
LAUREL           N/A     -4 -11  71 SW16      30.18F WCI -25
$$

REGIONAL REPORTS...DAKOTAS

CITY           SKY/WX    TMP DP  RH WIND       PRES   REMARKS
WILLISTON      FAIR      -6 -13  71 CALM      30.24R
MINOT          FAIR       2  -8  63 SW16      30.18R WCI -18
DICKINSON      FAIR      -6 -14  68 W12       30.19R WCI -25
BEACH          FAIR      -2 -11  65 SW20      30.22S WCI -25
CROSBY         FAIR      -6 -13  71 SW12      30.18R WCI -24
TIOGA          FAIR      -4  -9  77 SW14      30.18R WCI -24
WATFORD CITY   FAIR      -4 -13  65 SW15      30.23S WCI -25
BISMARCK       FAIR      -3 -10  72 SW6       30.30R WCI -15
GRAND FORKS    FAIR       3  -4  72 SW12      30.24R WCI -13
FARGO          FAIR       1  -5  75 SW12      30.31R WCI -16
BUFFALO SD       N/A     -9 -16  71 W9        30.13R WCI -26
RAPID CITY     FAIR     -13 -17  82 CALM      30.25R
$$

REGIONAL REPORTS...WYOMING/IDAHO/WASHINGTON

CITY           SKY/WX    TMP DP  RH WIND       PRES   REMARKS
GILLETTE       FAIR      -6 -16  61 S9        30.15R WCI -23
SHERIDAN       FAIR     -14 -21  71 SW3       30.15S
BUFFALO WY     FAIR      -4 -15  59 W3        30.09R
CODY           FAIR     -15 -20  78 CALM      30.08S
YELLOWSTONE LA   N/A    -22 -25  85 W3        29.95R
IDAHO FALLS    MOCLDY    12   4  70 SE8       30.13S WCI   0
SALMON         FAIR      12   4  70 CALM      30.09R
BOISE          CLOUDY    25   4  40 SE10      30.16R WCI  15
SPOKANE        FAIR      14   7  73 NE3       30.21S
$$

REGIONAL REPORTS...ALBERTA

CITY           SKY/WX    TMP DP  RH WIND       PRES   REMARKS
$$

REGIONAL REPORTS...SASKATCHEWAN

CITY           SKY/WX    TMP DP  RH WIND       PRES   REMARKS
$$




USA.gov is the U.S. government's official web portal to all federal, state and local government web resources and services.